Location: Lane
(33.5226°N, 79.8788°W)
Time: 04:22:31
(UTC+00:00)

Vanguard 2 - Pass Details

Date: 08 October 2022
Orbit: 553 x 2933 km, 32.9° (Epoch: 26 November)

Event Time Altitude Azimuth Distance (km) Brightness Sun altitude
Rises 20:24:02 0° 280° (W) 5,043 12.4 28.8°
Reaches altitude 10° 20:26:52 10° 279° (W) 4,319 12.2 28.3°
Maximum altitude 20:39:41 76° 196° (SSW) 2,629 10.8 26.0°
Drops below altitude 10° 20:57:31 10° 114° (ESE) 5,759 11.7 22.6°
Sets 21:01:59 0° 113° (ESE) 6,740 12.0 21.8°
